www.pogodaiklimat.ru

Погода и климат >> Архив погоды >> Пакистан >> Dera Ismail Khan


ПОГОДА в Dera Ismail Khan

  • Прогноз погоды в Dera Ismail Khan
  • Монитор погоды в Dera Ismail Khan
  • Климат города

АРХИВ ПОГОДЫ в Dera Ismail Khan

Время (UTC), дата Ветер
(напр.,м/с)
 
Видим.   Явления Облачность Т
(С)
Тd
(С)
f
(%)
Тe
(С)
Тes
(С)
Комфортность P
(гПа)
Po
(гПа)
Тmin
(С)
Tmax
(С)
R
(мм)
R24
(мм)
S
(см)
00 12.12 штиль 0 200 м туман ?/? +11.0 +10.0 94 +10 +10 1012.7 992.0
03 12.12 штиль 0 500 м туман ?/? +10.5 +9.5 94 +10 +10 1013.7 993.0 +9.1
06 12.12 штиль 0 500 м ?/? +11.0 +10.0 94 +10 +10 1016.2 995.5
09 12.12 ЮВ 1 2000 м дым ясно +16.0 +11.4 74 +17 +23 1015.1 1015.0
12 12.12 СВ 2 4000 м дым ясно +15.5 +10.8 74 +15 +15 1015.2 1022.4 +17.5
15 12.12 СВ 1 4000 м дым ясно +13.5 +10.6 83 +14 +14 1017.2 1017.0
18 12.12 СВ 1 4000 м дым 10/5 300 м
[Sc As op]
+11.5 +10.5 94 +12 +12 1019.1 998.4
21 12.12 штиль 0 4000 м дым 9/4 1110 м
[Sc As op]
+11.0 +10.0 94 +10 +10 1019.3 1019.0
00 13.12 штиль 0 200 м туман ?/? +10.5 +9.5 94 +10 +10 1018.1 1012.1
03 13.12 штиль 0 500 м туман ?/? +10.0 +9.0 93 +9 +9 1019.4 998.6 +9.0
06 13.12 штиль 0 500 м туман ?/? +10.5 +9.5 94 +10 +10 1020.4 999.6
09 13.12 штиль 0 1000 м дым ясно +14.0 +11.2 83 +14 +21 1018.8 1000.0
12 13.12 штиль 0 2000 м дым ясно +15.5 +12.8 84 +15 +15 1018.0 997.6 +16.5
15 13.12 штиль 0 1000 м дым ясно +12.0 +10.1 88 +11 +11 1019.8 1000.0
18 13.12 штиль 0 1000 м дымка {туман} ?/? +11.0 +10.0 94 +10 +10 1021.1 1000.3
21 13.12 штиль 0 1000 м дымка ?/? +10.5 +9.5 94 +10 +10 1021.5 1000.1
00 14.12 СЗ 1 1000 м дым {туман} 9/5 300 м
[Sc As op]
+10.5 +9.5 94 +10 +10 1021.0 1000.2
03 14.12 СЗ 1 1000 м дым 6/4 300 м
[Sc As op]
+7.5 +6.4 93 +6 +7 1022.3 1001.3 +6.5
06 14.12 СВ 1 2000 м дым 4/0
[As op]
+12.0 +7.9 76 +13 +18 1023.5 1002.7
09 14.12 СЗ 1 2000 м дым 8/4 1110 м
[Sc As op]
+16.5 +6.3 51 +17 +19 1021.0 1001.5
12 14.12 СЗ 1 2000 м дым 9/5 300 м
[Sc As op]
+16.5 +7.6 56 +18 +18 1020.3 999.9 +18.1
15 14.12 СЗ 1 2000 м дым 8/5 300 м
[Sc As op]
+14.0 +10.2 78 +15 +15 1020.2 1000.0
18 14.12 СЗ 1 2000 м дым 8/5 300 м
[Sc As op]
+10.0 +5.7 75 +11 +11 1021.6 1000.8
21 14.12 СЗ 1 2000 м дым 6/3 1110 м
[Sc As op]
+9.0 +5.7 80 +8 +8 1022.3 1000.3
00 15.12 штиль 0 500 м дымка {туман} ?/? +7.0 +4.7 85 +6 +6 1021.3 1000.3
03 15.12 штиль 0 2000 м дым ясно +6.0 +3.6 85 +5 +6 1023.5 1002.4 +5.5
06 15.12 СЗ 1 4000 м мгла ясно +15.0 +1.2 39 +16 +23 1024.2 1003.6
09 15.12 СЗ 2 4000 м мгла ясно +19.5 -3.6 21 +20 +25 1021.6 1003.0
12 15.12 СЗ 1 4000 м мгла ясно +18.0 -0.5 29 +20 +20 1021.7 1001.5 +20.1
15 15.12 штиль 0 1000 м дым ясно +12.5 +3.6 55 +12 +12 1022.9 1000.0
18 15.12 штиль 0 2000 м дым ясно +10.0 +3.1 62 +10 +10 1024.4 1003.6
21 15.12 штиль 0 2000 м дым ясно +9.0 +4.5 73 +8 +8 1024.9 1000.0
00 16.12 штиль 0 1000 м дымка {туман} ?/? +6.5 +4.2 85 +6 +6 1023.6 1002.5
03 16.12 штиль 0 4000 м дым ясно +7.0 +0.7 64 +6 +7 1024.5 1003.5 +4.5
06 16.12 СЗ 1 4000 м дым ясно +15.0 -0.5 35 +16 +24 1024.8 1004.3
09 16.12 СЗ 2 4000 м мгла ясно +21.5 -1.3 22 +21 +26 комфорт 1022.2 1022.0
12 16.12 СЗ 1 4000 м мгла ясно +21.0 +1.5 27 +23 +23 комфорт 1021.1 1028.1 +23.1
15 16.12 штиль 0 1000 м дым ясно +15.0 +6.9 58 +15 +15 1022.2 1022.0
18 16.12 штиль 0 1000 м дым ясно +12.0 +6.8 70 +12 +12 1024.0 1003.3
21 16.12 штиль 0 1000 м дым ясно +9.0 +5.7 80 +8 +8 1023.4 999.6
00 17.12 СЗ 1 1000 м дым ясно +7.5 +2.7 72 +8 +8 1023.4 1002.4
03 17.12 штиль 0 4000 м 8/8 1000 м
[]
+7.0 +0.7 64 +6 +7 1024.1 1003.1 +4.5
06 17.12 штиль 0 10 км 8/8 1000 м
[]
+17.0 +2.8 39 +17 +19 1025.0 1004.7
09 17.12 штиль 0 10 км 4/0
[As op]
+24.0 +2.0 24 +23 +28 комфорт 1021.9 1022.0
12 17.12 штиль 0 10 км 8/5 300 м
[Sc As op]
+23.0 +5.1 31 +23 +23 комфорт 1021.0 1027.4 +25.1
15 17.12 штиль 0 4000 м ясно +14.0 +5.6 57 +14 +14 1021.2 1021.0
18 17.12 штиль 0 4000 м ясно +11.0 +4.3 63 +11 +11 1023.7 1003.0
21 17.12 штиль 0 4000 м ясно +8.0 +4.6 79 +7 +7 1023.3 1023.0
00 18.12 штиль 0 4000 м ясно +8.0 +4.6 79 +7 +7 1023.9 1015.8
03 18.12 штиль 0 10 км ясно +12.0 +2.1 51 +12 +12 1023.3 1002.3 +5.5
06 18.12 штиль 0 10 км 8/3 1200 м
[Sc As op]
+18.0 +2.9 36 +18 +21 1023.9 1003.7
09 18.12 штиль 0 10 км ясно +24.0 +6.8 33 +24 +31 комфорт 1021.0 1021.0
12 18.12 штиль 0 4000 м ясно +25.0 +10.8 41 +26 +26 жарко 1020.0 1000.2 +27.0
15 18.12 штиль 0 4000 м дым ясно +15.0 +6.9 58 +15 +15 1021.2 1000.0
18 18.12 штиль 0 2000 м дым 9/5 300 м
[Sc As op]
+13.0 +6.8 66 +13 +13 1022.3 1001.6
21 18.12 штиль 0 2000 м дым ясно +11.0 +5.6 69 +11 +11 1022.2 1022.0

 

Местоположение метеостанции Dera Ismail Khan (Пакистан): широта 31.82 долгота 70.92 высота над уровнем моря 173 м.

В архиве по умолчанию представлена погода в Dera Ismail Khan за последнюю неделю. Архивные данные за месяц целиком и за предыдущие месяцы, начиная с января 2011 года, Вы можете получить, выбрав интересующий диапазон дат из раскрывающегося списка и нажав кнопку "Ввод!".

Внимание! Время в таблицах - всемирное. Для получения местного времени необходимо прибавить поправку, которая в Dera Ismail Khan равна 5 ч.

Смотрите также архив погоды в соседних городах и на ближайших метеорологических станциях:

Погода в Mianwali (Пакистан) (99 км)
Погода в Zhob (Пакистан) (147 км)
Погода в Sargodha (Пакистан) (167 км)
Погода в Raifiqui Airbase (Пакистан) (168 км)
Погода в Multan (Пакистан) (187 км)
Погода в Kohat (Пакистан) (200 км)
Погода в Faisal Abad (Пакистан) (211 км)
Погода в Parachinar (Пакистан) (241 км)
Погода в Barkhan (Пакистан) (244 км)
Погода в Peshawar (Пакистан) (252 км)

Пояснения к столбцам:

Ветер - указаны скорость ветра в м/с - средняя за 10 мин, порывы в срок и между сроками (в фигурных скобках) и направление, откуда дует ветер: С - северный, СВ - северо-восточный, В - восточный, ЮВ - юго-восточный, Ю - южный, ЮЗ - юго-западный, З - западный, СЗ - северо-западный.
Видимость - горизонтальная дальность видимости в метрах или километрах. При видимости от 1 до 10 км при отсутствии осадков обычно наблюдается дымка, при ухудшении видимости до 1 км и менее - туман. В сухую погоду видимость может ухудшаться дымом, пылью или мглою.
Явления - указаны атмосферные явления, наблюдавшиеся в срок или в последний час перед сроком; фигурными скобками обозначены явления, наблюдавшиеся между сроками (за 1-3 часа до срока); квадратными скобками обозначены град или гололедные отложения с указанием их диаметра в мм.
Облачность - указаны через наклонную черту общая и нижняя облачность в баллах и высота нижней границы облаков в метрах; квадратными скобками обозначены формы облаков: Ci - перистые, Cs - перисто-слоистые, Cc - перисто-кучевые, Ac - высококучевые, As - высокослоистые, Sc - слоисто-кучевые, Ns - слоисто-дождевые, Cu - кучевые, Cb - кучево-дождевые. Подробнее классификацию облаков см. в Атласе облаков (PDF).
T - Температура воздуха - температура, измеренная на высоте 2 м над землей.
Td - Температура точки росы - температура, при понижении до которой содержащийся в воздухе водяной пар достигнет насыщения.
f - Относительная влажность воздуха - влажноcть воздуха, измеренная на высоте 2 м над землей.
Te - Эффективная температура - температура, которую ощущает одетый по сезону человек в тени. Характеристика душности погоды. При расчете учитывается влияние влажности воздуха и скорости ветра на теплоощущения человека.
Tes - Эффективная температура на солнце - температура, которую ощущает человек, с поправкой на солнечный нагрев. Характеристика знойности погоды. Зависит от высоты солнца над горизонтом, облачности и скорости ветра. Ночью, в пасмурную погоду, а также при ветре 12 м/с и более поправка равна нулю.
P - Атмосферное давление - приведенное к уровню моря атмосферное давление.
Po - Атмосферное давление - измеренное на уровне метеостанции атмосферное давление.
Tmin - Минимальная температура - минимум температуры воздуха на высоте 2 м над землей.
Tmax - Максимальная температура - максимум температуры воздуха на высоте 2 м над землей.
R - Количество осадков - Количество выпавших осадков за период времени, мм. При наведении курсора мыши на число - период времени, за который выпало указанное количество осадков.
R24 - Количество осадков - Количество выпавших осадков за 24 часа, мм.
S - Снежный покров - Высота снежного покрова, см. При наведении курсора мыши на число - состояние снежного покрова и степень покрытия местности в баллах.